Regional Weather Roundup
Issued by NWS

Home | Current Version | Previous Version | Text Only | Print | Product List | Glossary On
Versions: 1 2 3 4 5 6 7 8 9 10 11 12 13 14 15 16 17 18 19 20 21 22 23 24 25 26 27 28 29 30 31 32 33 34 35 36 37 38 39 40 41 42 43 44 45 46 47 48 49 50
000
ASUS43 KFSD 221210
RWRSD

WEATHER ROUNDUP FOR SOUTH DAKOTA
NATIONAL WEATHER SERVICE SIOUX FALLS SD
700 AM CDT FRI AUG 22 2014

NOTE: "FAIR" INDICATES FEW OR NO CLOUDS BELOW 12,000 FEET WITH NO
SIGNIFICANT WEATHER AND/OR OBSTRUCTIONS TO VISIBILITY.


SDZ001>005-009-010-012>017-221300-
NORTHWEST AND NORTH CENTRAL SOUTH DAKOTA

CITY           SKY/WX    TMP DP  RH WIND       PRES   REMARKS
BUFFALO          N/A     60  58  92 NE3       30.00S
FAITH            N/A     62  61  96 NE13      30.03R
MOBRIDGE       RAIN      64  63  96 NW8       30.00R FOG
$$

SDZ012>016-024>037-041>051-057-063-072>074-221300-
SOUTHWEST AND SOUTH CENTRAL SOUTH DAKOTA

CITY           SKY/WX    TMP DP  RH WIND       PRES   REMARKS
RAPID CTY ARPT CLOUDY    61  60  97 N8        30.06S FOG
PIERRE         PTCLDY    65  64  97 NE12      29.97S
CUSTER         CLEAR     50  48  93 CALM      30.14R
ELLSWORTH AFB  FOG       62  62 100 N8        30.05S VSB 1/2
PHILIP         PTCLDY    65  62  90 E9        29.97R
PINE RIDGE     MOCLDY    58  57  97 W3        30.05R
WINNER         FAIR      64  61  90 NE3       29.98R
$$

SDZ004>011-016>023-039-040-221300-
NORTHEAST SOUTH DAKOTA

CITY           SKY/WX    TMP DP  RH WIND       PRES   REMARKS
ABERDEEN       MOCLDY    64  64 100 N8        29.98R
WATERTOWN      PTCLDY    61  61 100 NW5       29.98R FOG
SISSETON         N/A     66  66 100 N8        29.96R
$$

SDZ017-020-022-023-036>040-048>070-221300-
SOUTHEAST SOUTH DAKOTA

CITY           SKY/WX    TMP DP  RH WIND       PRES   REMARKS
SIOUX FALLS    PTCLDY    64  63  96 MISG      29.93S FOG
HURON          MOCLDY    60  60 100 CALM      29.97R FOG
CHAMBERLAIN    PTCLDY    64  63  96 N6        29.98R
MITCHELL       FOG       62  62 100 NW5       29.94S VSB<1/4
YANKTON        CLEAR     64  63  94 NW6       29.92S
$$

ABBREVIATIONS USED IN REMARKS
   TC - TEMPERATURE IN CELSIUS
  WCI - WIND CHILL INDEX
   HX - HEAT INDEX
  VSB - VISIBILITY




USA.gov is the U.S. government's official web portal to all federal, state and local government web resources and services.